{"data":{"norad_id":68521,"intl_designator":"2026-068P","name":"STARLINK-36347","alt_names":[],"object_type":"PAYLOAD","status":"ACTIVE","operator":null,"country":"US","launch_date":"2026-03-30","launch_site_code":"AFETR","launch_vehicle":null,"mission":null,"orbit_class":"UNKNOWN","rcs_meters":null,"size_class":null,"mass_kg":null,"dimensions":null,"purposes":["comms"],"wikipedia_slug":null,"has_3d_model":false,"image_url":null,"decayed_at":null,"tle_current":{"epoch":"2026-05-24T23:26:50.139744Z","epoch_age_seconds":70992,"freshness":"FRESH","line1":"1 68521U 26068P   26144.97696921  .00023644  00000+0  80747-3 0  9997","line2":"2 68521  53.1582 135.0085 0000934  94.5716 265.5391 15.30216563  8627","mean_motion":15.30216563,"eccentricity":9.34e-5,"inclination_deg":53.1582,"raan_deg":135.0085,"arg_perigee_deg":94.5716,"mean_anomaly_deg":265.5391,"bstar":0.00080747,"rev_number":862,"period_min":94.104327114122,"perigee_km":474.52551726859,"apogee_km":475.80571419721,"semimajor_km":6853.3026157329,"source":"CELESTRAK","updated_at":"2026-05-25T13:38:21.955161Z"}}}